STARLINK-11455, 62463

Orbit data source: Space-Track

STARLINK-11455, 62463 is a payload satellite owned by SpaceX/Seattle (US) in LEO that was launched on Tue, 31 Dec 2024 UTC via an FALCON 9 launch vehicle from the Air Force Eastern Test Range (AFETR). Payload-class satellites include a variety of spacecraft equipped with specific instruments for various scientific and technological missions. These include communications satellites like Starlink; space stations such as the ISS; scientific satellites like the Hubble; Earth observation satellites from companies like Planet Labs, Umbra, and HawkEye 360; GPS; miniature CubeSats for education and research; and military/defense satellites.

Loading next visibility...
Identifier
62463, 2024-254B
Orbit
LEO
Last TLE update
13 hours ago
Origin
Manufacturer
SpaceX/Seattle
Mission
Operational Commercial Communications
Bus & Motor
STARLINK V2M, Unknown motor
Mass
730 kg wet, ~700 kg dry
Launch date (UTC)
2024-12-31 (6 months ago)
Launch vehicle
FALCON 9
Launch site
Air Force Eastern Test Range (AFETR)
Object type
Payload
Rocket body
Debris
Shape & HBR
Box + 2 Pan, 29 m
Radar Cross Section
36.964 m², Large (>1 m²)

Expand to show TLE details & history

TLE from 13 hours ago
0 STARLINK-11455
1 62463U 24254B   25181.69441509  .00148615  00000-0  11281-2 0  9993
2 62463  42.9993 302.4005 0002892 247.4806 112.5756 15.71110338 29766
Epoch: 2025-06-30T16:39Z
TLE epoch observation values (Epoch: 2025-06-30T16:39:57.463Z)
Latitude
-0.00001°
Longitude
133.41051°
Altitude
356.242 km
Speed
7.697 km/s
True Right ascension
20h 09m 36s
True Declination
0° 00' 00"
Sunlit
Object was in full shadow at epoch
Visualization orbit readout
Latitude
-41.89852°
Longitude
56.9516°
Altitude
366.395 km
Speed
7.691 km/s
Apparent Right ascension
10h 31m 03s
Apparent Declination
-68° 33' 60"
Sunlit
Object is in full shadow
Visualization observer readout
Local Sidereal Time
17:41:49
Azimuth
208.444° SW
Elevation
-43.037°
Doppler factor
1
Orbital elements
Apogee altitude
359.652 km
Perigee altitude
355.756 km
Semi-major axis
6,735.841 km
Eccentricity
0.00029
Inclination
42.9993°
RAAN
302.4005°
Arg. of periapsis
247.4806°
True anomaly
Unknown
Mean anomaly
112.5756°
Eccentric anomaly
Unknown
Mean motion
3.92605 °/min
Orbital period
91.7 mins
BSTAR
0.0011281
Loading maneuver chart data...
Loading SW <> Apogee altitude chart data...
Loading historical data...
Loading historical data...
Loading historical data...
Loading historical data...
Loading historical data...
Loading historical data...
Loading historical data...

STARLINK-11455 Visibility forecast

Observer location: undefined°, undefined°

Span
Click to sort rows by Start time (UTC) header in descending order
Start Az.
Max El. time (UTC)
Max El. Az.
Max El.
End time (UTC)
End Az.
4 mins2025-07-01 11:11:05.678Z200.53° SSW2025-07-01 11:13:05.678Z143.227° SSE23.693°2025-07-01 11:15:05.678Z94.19° ESE
4 mins2025-07-01 12:47:05.678Z266.115° W2025-07-01 12:49:05.678Z21.861° NNE41.539°2025-07-01 12:51:05.678Z67.422° ENE
4 mins2025-07-01 16:00:05.678Z283.489° WNW2025-07-01 16:01:05.678Z260.432° W43.334°2025-07-01 16:04:05.678Z113.351° SE
|